Regional Weather Roundup
Issued by NWS

Home | Current Version | Previous Version | Text Only | Print | Product List | Glossary On
Versions: 1 2 3 4 5 6 7 8 9 10 11 12 13 14 15 16 17 18 19 20 21 22 23 24 25 26 27 28 29 30 31 32 33 34 35 36 37 38 39 40 41 42 43 44 45 46 47 48 49 50
000
ASUS43 KFSD 180710
RWRSD

WEATHER ROUNDUP FOR SOUTH DAKOTA
NATIONAL WEATHER SERVICE SIOUX FALLS SD
100 AM CST SAT NOV 18 2017

NOTE: "FAIR" INDICATES FEW OR NO CLOUDS BELOW 12,000 FEET WITH NO
SIGNIFICANT WEATHER AND/OR OBSTRUCTIONS TO VISIBILITY.


SDZ001>005-009-010-012>017-180800-
NORTHWEST AND NORTH CENTRAL SOUTH DAKOTA

CITY           SKY/WX    TMP DP  RH WIND       PRES   REMARKS
BUFFALO          N/A     26  22  84 W13       29.83R WCI  15
FAITH            N/A     34  32  92 NW17      29.85  WCI  23
MOBRIDGE       CLOUDY    31  26  82 CALM      29.79R
$$

SDZ012>016-024>037-041>051-057-063-072>074-180800-
SOUTHWEST AND SOUTH CENTRAL SOUTH DAKOTA

CITY           SKY/WX    TMP DP  RH WIND       PRES   REMARKS
RAPID CTY ARPT CLEAR     34  25  69 N13       29.89R WCI  25
PIERRE         CLOUDY    38  37  97 W7        29.82R
CUSTER         CLOUDY    29  16  58 NW8       29.87R WCI  21
ELLSWORTH AFB  CLEAR     35  26  70 NW15      29.89R WCI  25
PHILIP         PTCLDY    36  36 100 W6        29.87R
PINE RIDGE     CLOUDY    36  36 100 NW6       29.90R
SPEARFISH      MOCLDY    36  21  55 W16G23    29.93R
WINNER         CLOUDY    38  35  89 NW8       29.83R
$$

SDZ004>011-016>023-039-040-180800-
NORTHEAST SOUTH DAKOTA

CITY           SKY/WX    TMP DP  RH WIND       PRES   REMARKS
ABERDEEN       CLOUDY    26  20  77 N3        29.83R
WATERTOWN      CLOUDY    29  24  82 N7        29.75R WCI  22
BROOKINGS      CLOUDY    31  26  82 N8        29.75R WCI  23
SISSETON         N/A     25  19  78 NW13      29.80R WCI  14
$$

SDZ017-020-022-023-036>040-048>070-180800-
SOUTHEAST SOUTH DAKOTA

CITY           SKY/WX    TMP DP  RH WIND       PRES   REMARKS
SIOUX FALLS    CLOUDY    36  30  79 N10       29.72S
HURON          CLOUDY    31  23  72 N10       29.80R WCI  22
CHAMBERLAIN    DRIZZLE   40  31  72 W6        29.81S
MITCHELL       CLOUDY    34  26  72 N9        29.79R WCI  27
YANKTON        CLOUDY    38  33  82 N10       29.75R
$$

ABBREVIATIONS USED IN REMARKS
   TC - TEMPERATURE IN CELSIUS
  WCI - WIND CHILL INDEX
   HX - HEAT INDEX
  VSB - VISIBILITY





USA.gov is the U.S. government's official web portal to all federal, state and local government web resources and services.